STARLINK-6077 (56097 NORAD) Tracking and Keplerian Element Data

This shows tracking and keplerian element data for the satellite.

Feedback or suggestion? Click here.




ElementValue
Catalog56097
NameSTARLINK-6077
Epoch Orbit657
Epoch Day127.09848157
Epoch Year2023
RAAN32.2288
Inclination43.0017
Eccentricity0.0001759
Argument of Perigee278.0861
Mean Anonmoly81.9807
Mean Motion15.71352218
Decay Rate-5.949E-05
L11 56097U 23046E 23127.09848157 -.00005949 00000+0 -41950-4 0 9990
L22 56097 43.0017 32.2288 0001759 278.0861 81.9807 15.71352218 6579



Live tracking and technical data element details for STARLINK-6077 (NORAD 56097). STARLINK-6077 can be tracked NOW for your location showing map with azimuth and elevation plus other details from your city location.







IsCatalogInMostPopularTable: catalog: 56097, numindb: -1

Insert: records affected: 1


GetName: 56097 STARLINK-6077

Hit Count: inserted at: Sat, 03 Jun 2023 18:41:56 GMT